Location: Mentone
(34.5413°N, 85.5351°W)
Time: 18:52:55
(UTC-05:00)

A-11 Canister half - Visible Passes

Search period start: 28 April 2016 00:00
Search period end: 08 May 2016 00:00
Orbit: 1527 x 1683 km, 47.3° (Epoch: 28 April)

Date Brightness Start Highest point End Pass type
(mag) Time Alt. Az. Time Alt. Az. Time Alt. Az.
28 Apr 10.4 02:20:23 21° SE 02:21:20 21° SE 02:28:03 10° E visible
28 Apr 9.1 04:18:42 24° SW 04:25:15 78° SE 04:35:17 10° NE visible
29 Apr 10.5 02:00:01 19° ESE 02:00:01 19° ESE 02:06:09 10° E visible
29 Apr 9.1 03:58:19 31° SW 04:03:40 74° SE 04:13:39 10° ENE visible
30 Apr 10.6 01:39:35 17° ESE 01:39:35 17° ESE 01:44:13 10° E visible
30 Apr 9.1 03:37:53 39° SSW 03:42:06 71° SE 03:52:01 10° ENE visible
01 May 10.7 01:19:06 15° ESE 01:19:06 15° ESE 01:22:13 10° E visible
01 May 9.1 03:17:23 46° SSW 03:20:31 68° SE 03:30:23 10° ENE visible
01 May 9.6 05:16:32 10° W 05:26:02 52° NNW 05:35:52 10° NE visible
02 May 10.9 00:58:33 13° E 00:58:33 13° E 01:00:10 10° E visible
02 May 9.1 02:56:50 53° S 02:58:58 64° SE 03:08:44 10° ENE visible
02 May 9.6 04:55:08 11° W 05:04:23 54° NNW 05:14:13 10° NE visible
03 May 11.0 00:37:58 10° E 00:37:58 10° E 00:37:59 10° E visible
03 May 9.0 02:36:15 58° SSE 02:37:24 61° SE 02:47:06 10° ENE visible
03 May 9.5 04:34:32 15° W 04:42:44 55° NNW 04:52:35 10° NE visible
04 May 9.1 02:15:36 58° SE 02:15:51 58° SE 02:25:27 10° ENE visible
04 May 9.5 04:13:53 19° W 04:21:05 57° NNW 04:30:57 10° NE visible
05 May 9.2 01:54:54 54° ESE 01:54:54 54° ESE 02:03:47 10° ENE visible
05 May 9.4 03:53:11 24° W 03:59:26 59° NNW 04:09:19 10° NE visible
06 May 9.4 01:34:10 49° ESE 01:34:10 49° ESE 01:42:09 10° ENE visible
06 May 9.3 03:32:26 29° W 03:37:48 61° NNW 03:47:41 10° NE visible
07 May 9.6 01:13:23 43° E 01:13:23 43° E 01:20:29 10° ENE visible
07 May 9.3 03:11:38 35° W 03:16:10 63° NNW 03:26:03 10° NE visible
07 May 10.2 05:13:54 10° WNW 05:22:58 39° N 05:32:17 10° ENE visible
